Location: Strawberry
(45.6646°N, 111.9596°W)
Time: 23:55:27
(UTC+00:00)

ISS - Pass Details

Date: 24 August 2022
Orbit: 414 x 417 km, 51.6° (Epoch: 24 September)

Event Time Altitude Azimuth Distance (km) Brightness Sun altitude
Exits shadow 11:09:56 11° 173° (S) 1,443 -1.3 -14.9°
Maximum altitude 11:11:56 16° 135° (SE) 1,166 -1.4 -14.6°
Drops below altitude 10° 11:14:08 10° 94° (E) 1,498 -0.1 -14.3°
Sets 11:16:45 0° 72° (ENE) 2,364 1.7 -13.9°
